Location: Newark
(46.7000°N, 60.6000°W)
Time: 21:59:17
(UTC+00:00)

Vanguard 1 Rocket - Pass Details

Date: 07 November 2020
Orbit: 656 x 4221 km, 34.3° (Epoch: 30 November)

Event Time Altitude Azimuth Distance (km) Brightness Sun altitude
Rises 12:06:35 0° 239° (WSW) 5,317 11.1 9.9°
Reaches altitude 10° 12:11:23 10° 229° (SW) 3,704 10.4 10.5°
Maximum altitude 12:18:05 25° 178° (S) 1,975 9.9 11.4°
Drops below altitude 10° 12:22:36 10° 122° (ESE) 2,416 12.2 12.0°
Sets 12:25:01 0° 108° (ESE) 3,156 11.6 12.3°
